Regional Weather Roundup
Issued by NWS

Home | Current Version | Previous Version | Text Only | Print | Product List | Glossary Off
Versions: 1 2 3 4 5 6 7 8 9 10 11 12 13 14 15 16 17 18 19 20 21 22 23 24 25 26 27 28 29 30 31 32 33 34 35 36 37 38 39 40 41 42 43 44 45 46 47 48 49 50

000
ASUS43 KDTX 061801
RWRMI
MICHIGAN HOURLY REGIONAL WEATHER ROUNDUP
NATIONAL WEATHER SERVICE DETROIT/PONTIAC MI
200 PM EDT WED MAY 06 2015

NOTE: "FAIR" INDICATES FEW OR NO CLOUDS BELOW 12,000 FEET WITH NO
SIGNIFICANT WEATHER AND/OR OBSTRUCTION TO VISIBILITY.

MIZ047>049-052>055-059>063-066>070-074>076-081>083-061900-
SOUTHEAST LOWER MICHIGAN

CITY           SKY/WX    TMP DP  RH WIND       PRES   REMARKS
ADRIAN         CLOUDY    59  56  89 CALM      30.25S FOG
6HR MIN TEMP:  51; 6HR MAX TEMP:  59;

ALMA           SUNNY     67  58  71 SE7       30.23F
ANN ARBOR      CLOUDY    65  58  78 VRB3      30.24F
BAD AXE        MOSUNNY   65  50  57 CALM      30.25F
CARO           CLOUDY    67  55  66 CALM      30.23F
DETROIT CITY   MOSUNNY   64  56  75 E3        30.24F
6HR MIN TEMP:  52; 6HR MAX TEMP:  64;

DETROIT        CLOUDY    67  58  72 SE3       30.24F
6HR MIN TEMP:  53; 6HR MAX TEMP:  67;

FLINT          CLOUDY    69  56  62 N3        30.23F
6HR MIN TEMP:  53; 6HR MAX TEMP:  71;

GROSSE ILE     CLOUDY    57  54  88 S7        30.23F HAZE
HILLSDALE      PTSUNNY   65  61  88 SE6       30.22F FOG
HOWELL         PTSUNNY   68  59  71 NE3       30.22F

CITY           SKY/WX    TMP DP  RH WIND       PRES   REMARKS
JACKSON        CLOUDY    64  58  80 E6        30.23F HAZE
6HR MIN TEMP:  52; 6HR MAX TEMP:  64;

LAMBERTVILLE   CLOUDY    59  54  82 CALM      30.24S HAZE
LANSING        MOSUNNY   66  57  72 S6        30.23F HAZE
6HR MIN TEMP:  53; 6HR MAX TEMP:  66;

LAPEER         CLOUDY    64  55  72 SE3       30.24F
MASON          MOSUNNY   64  59  83 S5        30.23F HAZE
MONROE         CLOUDY    61  55  82 SE5       30.23S HAZE
MT. CLEMENS    PTSUNNY   64  55  74 NE5       30.23F HAZE
6HR MIN TEMP:  52; 6HR MAX TEMP:  64; 6HR PCP:  0.01;

PONTIAC        PTSUNNY   67  57  70 VRB3      30.23F
6HR MIN TEMP:  52; 6HR MAX TEMP:  67;

PORT HOPE        N/A     46  41  82 NE7       30.26F
6HR MIN TEMP:  45; 6HR MAX TEMP:  49;

PORT HURON     MOSUNNY   66  55  68 E6        30.24F
TRI CITIES     CLOUDY    68  53  58 SE6       30.24F
6HR MIN TEMP:  52; 6HR MAX TEMP:  69; 6HR PCP: TRACE;

MIDLAND        CLOUDY    67  51  56 SE6       30.22F
TROY           MOSUNNY   68  56  64 NE5       30.25F
SAGINAW HB     CLOUDY    68  54  60 NE3       30.23F
$$
MIZ043>046-050>051-056>058-064>065-071>073-077>080-061900-
SOUTHWEST LOWER MICHIGAN

CITY           SKY/WX    TMP DP  RH WIND       PRES   REMARKS
BATTLE CREEK   MOSUNNY   67  59  75 E6        30.22F
6HR MIN TEMP:  53; 6HR MAX TEMP:  67;

BENTON HARBOR  SUNNY     74  62  66 S8        30.16F
6HR MIN TEMP:  53; 6HR MAX TEMP:  75;

BIG RAPIDS     MOSUNNY   67  54  63 SE3       30.21F
6HR MIN TEMP:  51; 6HR MAX TEMP:  67;

COLDWATER      PTSUNNY   66  60  81 SE7       30.21F HAZE
6HR MIN TEMP:  52; 6HR MAX TEMP:  66;

FREMONT        FAIR      71  56  58 NE9       30.18F
HOLLAND        SUNNY     70  61  73 E8        30.19F
6HR MIN TEMP:  53; 6HR MAX TEMP:  70;

GRAND RAPIDS   MOSUNNY   66  57  72 E9        30.20F
6HR MIN TEMP:  53; 6HR MAX TEMP:  66;

IONIA          CLOUDY    67  58  72 S3        30.21F
KALAMAZOO      MOSUNNY   69  59  70 SE5       30.20F
6HR MIN TEMP:  53; 6HR MAX TEMP:  70;

LUDINGTON      MOSUNNY   71  57  60 CALM      30.18F
6HR MIN TEMP:  56; 6HR MAX TEMP:  71;

MARSHALL       MOSUNNY   66  59  78 E6        30.21F
MOUNT PLEASANT PTSUNNY   68  54  61 SE5       30.22F
6HR MIN TEMP:  48; 6HR MAX TEMP:  68;

MUSKEGON       PTSUNNY   72  58  61 SE7       30.18F
6HR MIN TEMP:  54; 6HR MAX TEMP:  72;

SOUTH HAVEN    SUNNY     74  61  63 E7        30.17F
$$
MIZ016>042-061900-
NORTHERN LOWER MICHIGAN

CITY           SKY/WX    TMP DP  RH WIND       PRES   REMARKS
ALPENA         SUNNY     64  46  52 SE10      30.26F
6HR MIN TEMP:  42; 6HR MAX TEMP:  64;

BEAVER ISLAND  MOSUNNY   65  31  28 E7        30.23F
6HR MIN TEMP:  55; 6HR MAX TEMP:  65;

BELLAIRE       PTSUNNY   71  44  37 SE9       30.21F
6HR MIN TEMP:  42; 6HR MAX TEMP:  71;

CADILLAC       CLOUDY    65  54  66 E6        30.21F
CHARLEVOIX     CLOUDY    54  37  52 N7        30.25F
6HR MIN TEMP:  48; 6HR MAX TEMP:  63;

FRANKFORT      PTSUNNY   71  48  44 NW3       30.19F
GAYLORD        PTSUNNY   69  33  26 MISG      30.22F
6HR MIN TEMP:  47; 6HR MAX TEMP:  69;

GRAYLING       CLOUDY    67  47  49 S6        30.23F
6HR MIN TEMP:  40; 6HR MAX TEMP:  68;

HARBOR SPRINGS MOSUNNY   59  37  43 SW3       30.21F
HOUGHTON LAKE  CLOUDY    64  47  53 S12       30.24F
6HR MIN TEMP:  46; 6HR MAX TEMP:  66;

MANISTEE       MOSUNNY   70  52  52 CALM      30.19F
OSCODA         MOSUNNY   59  47  64 E9        30.26F
PELLSTON       MOSUNNY   73  24  16 VRB6      30.22F
6HR MIN TEMP:  45; 6HR MAX TEMP:  73;

ROGERS CITY    SUNNY     59  45  60 E13       30.26F
TRAVERSE CITY  PTSUNNY   71  51  49 VRB5      30.20F
6HR MIN TEMP:  46; 6HR MAX TEMP:  71; 6HR PCP: TRACE;

$$
MIZ007>008-015-061900-
EASTERN UPPER MICHIGAN

CITY           SKY/WX    TMP DP  RH WIND       PRES   REMARKS
KINROSS        FAIR      68  30  24 S9G18     30.24F
6HR MIN TEMP:  46; 6HR MAX TEMP:  68;

MACKINAC ISLAN SUNNY     53  42  67 E15G22    30.25F
6HR MIN TEMP:  46; 6HR MAX TEMP:  56;

NEWBERRY       FAIR      69  19  14 SE12G18   30.22F
6HR MIN TEMP:  46; 6HR MAX TEMP:  69;

S. S. MARIE    FAIR      68  35  29 SE10      30.23F
6HR MIN TEMP:  44; 6HR MAX TEMP:  69;

$$
MIZ004>006-011>014-085-061900-
CENTRAL UPPER MICHIGAN

CITY           SKY/WX    TMP DP  RH WIND       PRES   REMARKS
MANISTIQUE     MOSUNNY   63  36  37 SE9       30.23S
6HR MIN TEMP:  50; 6HR MAX TEMP:  64;

ESCANABA       CLOUDY    57  36  44 SE9       30.22F
6HR MIN TEMP:  41; 6HR MAX TEMP:  61;

MENOMINEE      PTSUNNY   57  41  54 E7        30.19F
6HR MIN TEMP:  48; 6HR MAX TEMP:  57;

SAWYER-GWINN   SUNNY     68  28  22 S13G22    30.19F
$$
MIZ001>003-009>011-084-061900-
WESTERN UPPER MICHIGAN

CITY           SKY/WX    TMP DP  RH WIND       PRES   REMARKS
IRON MOUNTAIN  CLOUDY    66  44  45 S13       30.17F
6HR MIN TEMP:  45; 6HR MAX TEMP:  66; 6HR PCP: TRACE;

HOUGHTON       FAIR      67  30  25 E14       30.15F
6HR MIN TEMP:  49; 6HR MAX TEMP:  67;

COPPER HARBOR    N/A     67  28  23 SW10      30.16F
6HR MIN TEMP:  46; 6HR MAX TEMP:  68;

IRONWOOD       CLOUDY    61  52  72 SE9       30.10S
6HR MIN TEMP:  54; 6HR MAX TEMP:  61;

$$

ABBREVIATIONS USED IN REMARKS
   TC - TEMPERATURE IN CELSIUS
  WCI - WIND CHILL INDEX
   HX - HEAT INDEX
  VSB - VISIBILITY



USA.gov is the U.S. government's official web portal to all federal, state and local government web resources and services.